EUTELSAT 117 WEST A

Last updated on Sat Jul 05 2025 00:02:45 GMT+0000 (Coordinated Universal Time)

1 39122U 13012A 25185.54221405 .00000001 00000+0 00000+0 0 9997 2 39122 0.0199 50.0519 0003053 56.8301 254.2983 1.00271496 44946
UTC large
Height (km)
Speed (km/s)
/
Latitude / Longitude
Inclination (degrees)
Orbital Period (minutes)
Azimuth
Elevation
Range (km)
Doppler Factor

Next 0 passes for location: London (51.5072 / 0.1276)

Sorry there are no passes over London.